Miscellaneous Local Product
Issued by NWS Hastings, NE

Home | Current Version | Previous Version | Text Only | Print | Product List | Glossary On
Versions: 1 2 3 4 5 6 7 8 9 10 11 12 13 14 15 16 17 18 19 20 21 22 23 24 25 26 27 28 29 30 31 32 33 34 35 36 37 38 39 40 41 42 43 44 45 46 47 48 49 50
000
AXUS43 KGID 272002
MISGRI

GID CWA HOURLY WEATHER ROUNDUP
NATIONAL WEATHER SERVICE HASTINGS NE
300 PM CDT THU JUL 27 2017

NOTE: "FAIR" INDICATES FEW OR NO CLOUDS BELOW 12,000 FEET WITH NO
SIGNIFICANT WEATHER AND/OR OBSTRUCTIONS TO VISIBILITY.

...SOUTH CENTRAL NEBRASKA...

CITY           SKY/WX    TMP DP  RH WIND       PRES   REMARKS
GRAND ISLAND   SUNNY     80  60  50 N7        30.10S
HASTINGS       CLOUDY    81  63  54 NE6       30.10S
KEARNEY        SUNNY     80  61  52 E7        30.11S
ORD            CLOUDY    83  57  41 E7        30.10R
YORK           MOSUNNY   79  66  65 NE10      30.08S
AURORA         SUNNY     79  63  57 NE6       30.08S
LEXINGTON      SUNNY     81  58  46 S3        30.12F
HOLDREGE       SUNNY     78  60  54 NE3       30.11F
HEBRON         PTSUNNY   83  64  53 N7        30.06S

...NEBRASKA PANHANDLE...

CITY           SKY/WX    TMP DP  RH WIND       PRES   REMARKS
CHADRON        NOT AVBL
ALLIANCE       MOSUNNY   82  61  48 SE20G29   30.14F
SCOTTSBLUFF    SUNNY     84  66  54 SE16G24   30.11F
SIDNEY         PTSUNNY   83  61  47 S13       30.17F

...WESTERN AND NORTH CENTRAL NEBRASKA...

CITY           SKY/WX    TMP DP  RH WIND       PRES   REMARKS
VALENTINE      CLOUDY    86  52  30 SE7G17    30.14F
AINSWORTH      PTSUNNY   79  58  48 E8        30.15F
ONEILL         CLOUDY    77  60  55 E5        30.13F
BROKEN BOW     SUNNY     83  57  41 NE5       30.12F
IMPERIAL       CLOUDY    82  61  48 VRB6      30.14F
NORTH PLATTE   SUNNY     86  48  26 VRB3      30.12F
MCCOOK         CLOUDY    85  61  44 NE6       30.11F

...EASTERN NEBRASKA...

CITY           SKY/WX    TMP DP  RH WIND       PRES   REMARKS
NORFOLK        CLOUDY    82  58  43 N12       30.08F
SO SIOUX CITY  MOSUNNY   85  60  42 NE14      30.05F
TEKAMAH        MOSUNNY   84  64  50 NE12      30.04F
COLUMBUS       PTSUNNY   81  65  58 E9        30.08S
ALBION         CLOUDY    80  63  55 NE8       30.10R
OMAHA EPPLEY   MOSUNNY   83  62  49 NE12G21   30.03F
OFFUTT AFB     MOSUNNY   84  62  46 N9        30.03S
MILLARD        MOSUNNY   85  65  51 N5        30.03F
LINCOLN        MOSUNNY   83  64  52 NE12      30.05S
NEBRASKA CITY  MOSUNNY   82  70  66 N8        30.03S
BEATRICE       CLOUDY    83  68  61 N10       30.04S
FALLS CITY     CLOUDY    86  71  60 NE10      29.99S HX  91

...NORTHERN KANSAS...

CITY           SKY/WX    TMP DP  RH WIND       PRES   REMARKS
GOODLAND       PTSUNNY   81  65  58 E10       30.16F
HILL CITY      PTSUNNY   87  65  47 E8        30.08F
NORTON         CLEAR     84  55  37 N8        30.09F
PHILLIPSBURG   SUNNY     88  61  40 NE6       30.07F
SMITH CENTER     N/A     82  66  57 N7        30.07F
HAYS           CLOUDY    83  66  56 NE10      30.05F
RUSSELL        CLOUDY    85  65  51 NE9       30.03F
CONCORDIA      MOSUNNY   85  69  58 N10       30.03S
SALINA         MOSUNNY   88  68  51 N9        30.00S HX  91
TOPEKA         PTSUNNY   85  75  72 NE12      29.96F HX  93



USA.gov is the U.S. government's official web portal to all federal, state and local government web resources and services.